• In Czech Republic
  • List of Countries
  • For 7 days
  • Water Temperature
  • Satellite Maps
  • Weather Map
  • Weather Widgets
  • user-avatar
    Login

    Hourly Weather Quito

    Today, 16 October, Tuesday

    Time Temperature Precipitation Wind Pressure Humidity
    00:00 +20°C° 0 mm 1 mps 623 mmHg 58%
    01:00 +20°C° 0 mm 1 mps 623 mmHg 63%
    02:00 +19°C° 0 mm 1 mps 623 mmHg 66%
    03:00 +19°C° 0 mm 1 mps 623 mmHg 70%
    04:00 +18°C° 0 mm 2 mps 623 mmHg 73%
    05:00 +19°C° 0 mm 2 mps 623 mmHg 68%
    06:00 +20°C° 0 mm 2 mps 624 mmHg 63%
    07:00 +23°C° 0 mm 2 mps 625 mmHg 59%
    08:00 +27°C° 0 mm 1 mps 626 mmHg 48%
    09:00 +31°C° 0 mm 1 mps 627 mmHg 37%
    10:00 +33°C° 0 mm 0 mps 629 mmHg 26%
    11:00 +34°C° 0 mm 1 mps 627 mmHg 27%
    12:00 +32°C° 0 mm 1 mps 626 mmHg 27%
    13:00 +30°C° 0 mm 2 mps 624 mmHg 28%
    14:00 +31°C° 0 mm 1 mps 624 mmHg 28%
    15:00 +31°C° 0 mm 1 mps 624 mmHg 28%
    16:00 +31°C° 0 mm 1 mps 624 mmHg 28%
    17:00 +29°C° 0 mm 1 mps 623 mmHg 33%
    18:00 +27°C° 0 mm 1 mps 623 mmHg 37%
    19:00 +25°C° 0 mm 1 mps 623 mmHg 41%
    20:00 +24°C° 0 mm 1 mps 623 mmHg 45%
    21:00 +23°C° 0 mm 1 mps 623 mmHg 48%
    22:00 +23°C° 0 mm 1 mps 623 mmHg 52%
    23:00 +22°C° 0 mm 1 mps 623 mmHg 56%

    Tomorrow, 17 October, Wednesday

    Time Temperature Precipitation Wind Pressure Humidity
    00:00 +21°C° 0 mm 1 mps 622 mmHg 61%
    01:00 +20°C° 0 mm 1 mps 622 mmHg 65%
    02:00 +19°C° 0 mm 2 mps 622 mmHg 67%
    03:00 +20°C° 0 mm 3 mps 622 mmHg 68%
    04:00 +20°C° 0 mm 3 mps 622 mmHg 70%
    05:00 +20°C° 0 mm 3 mps 622 mmHg 67%
    06:00 +21°C° 0 mm 3 mps 623 mmHg 64%
    07:00 +22°C° 0 mm 3 mps 624 mmHg 61%
    08:00 +26°C° 0 mm 2 mps 624 mmHg 50%
    09:00 +29°C° 0 mm 2 mps 625 mmHg 39%
    10:00 +34°C° 0 mm 2 mps 626 mmHg 28%
    11:00 +34°C° 0 mm 2 mps 625 mmHg 27%
    12:00 +33°C° 0 mm 1 mps 624 mmHg 25%
    13:00 +33°C° 0 mm 1 mps 623 mmHg 24%
    14:00 +32°C° 0 mm 1 mps 623 mmHg 26%
    15:00 +31°C° 0 mm 2 mps 622 mmHg 29%
    16:00 +30°C° 0 mm 2 mps 622 mmHg 31%
    17:00 +28°C° 0 mm 1 mps 621 mmHg 37%
    18:00 +26°C° 0 mm 1 mps 621 mmHg 43%
    19:00 +24°C° 0 mm 1 mps 621 mmHg 49%
    20:00 +23°C° 0.6 mm 1 mps 621 mmHg 57%
    21:00 +21°C° 0.6 mm 2 mps 621 mmHg 64%
    22:00 +19°C° 0.6 mm 3 mps 622 mmHg 72%
    23:00 +19°C° 0.4 mm 2 mps 621 mmHg 76%

    Day after tomorrow, 18 October, Thursday

    Time Temperature Precipitation Wind Pressure Humidity
    00:00 +18°C° 0.4 mm 2 mps 621 mmHg 80%
    01:00 +18°C° 0.4 mm 2 mps 621 mmHg 84%
    02:00 +18°C° 0.1 mm 2 mps 621 mmHg 84%
    03:00 +18°C° 0.1 mm 2 mps 621 mmHg 84%
    04:00 +18°C° 0.1 mm 2 mps 621 mmHg 84%
    05:00 +19°C° 0.1 mm 2 mps 621 mmHg 81%
    06:00 +20°C° 0.1 mm 1 mps 622 mmHg 77%
    07:00 +21°C° 0.1 mm 1 mps 622 mmHg 74%
    08:00 +24°C° 0 mm 1 mps 623 mmHg 61%
    09:00 +27°C° 0 mm 1 mps 624 mmHg 47%
    10:00 +30°C° 0 mm 1 mps 625 mmHg 34%
    11:00 +31°C° 0 mm 2 mps 624 mmHg 30%
    12:00 +32°C° 0 mm 2 mps 624 mmHg 26%
    13:00 +35°C° 0 mm 2 mps 623 mmHg 23%
    14:00 +34°C° 0 mm 2 mps 623 mmHg 25%
    15:00 +32°C° 0 mm 2 mps 622 mmHg 27%
    16:00 +30°C° 0 mm 2 mps 621 mmHg 29%
    17:00 +28°C° 0.1 mm 2 mps 621 mmHg 36%
    18:00 +26°C° 0.1 mm 3 mps 621 mmHg 43%
    19:00 +24°C° 0.1 mm 3 mps 621 mmHg 51%
    20:00 +22°C° 0.7 mm 3 mps 621 mmHg 58%
    21:00 +21°C° 0.7 mm 3 mps 621 mmHg 65%
    22:00 +20°C° 0.7 mm 3 mps 622 mmHg 73%
    23:00 +19°C° 0.4 mm 2 mps 621 mmHg 75%

    19 October, Friday

    Time Temperature Precipitation Wind Pressure Humidity
    00:00 +19°C° 0.4 mm 2 mps 621 mmHg 77%
    01:00 +18°C° 0.4 mm 2 mps 621 mmHg 80%
    02:00 +18°C° 0.1 mm 2 mps 620 mmHg 81%
    03:00 +18°C° 0.1 mm 1 mps 620 mmHg 83%
    04:00 +18°C° 0.1 mm 1 mps 620 mmHg 84%
    05:00 +19°C° 0 mm 1 mps 621 mmHg 79%
    06:00 +20°C° 0 mm 1 mps 622 mmHg 74%
    07:00 +22°C° 0 mm 1 mps 623 mmHg 69%
    08:00 +25°C° 0 mm 1 mps 623 mmHg 57%
    09:00 +28°C° 0 mm 2 mps 624 mmHg 46%
    10:00 +31°C° 0 mm 2 mps 625 mmHg 34%
    11:00 +31°C° 0 mm 2 mps 624 mmHg 33%
    12:00 +31°C° 0 mm 3 mps 624 mmHg 31%
    13:00 +31°C° 0 mm 3 mps 623 mmHg 29%
    14:00 +31°C° 0 mm 3 mps 623 mmHg 30%
    15:00 +30°C° 0 mm 3 mps 623 mmHg 30%
    16:00 +30°C° 0 mm 3 mps 623 mmHg 31%
    17:00 +28°C° 0.5 mm 3 mps 622 mmHg 40%
    18:00 +25°C° 0.5 mm 3 mps 622 mmHg 50%
    19:00 +22°C° 0.5 mm 3 mps 622 mmHg 59%
    20:00 +21°C° 1.1 mm 2 mps 622 mmHg 66%
    21:00 +21°C° 1.1 mm 1 mps 622 mmHg 73%
    22:00 +20°C° 1.1 mm 1 mps 623 mmHg 80%
    23:00 +20°C° 0.7 mm 1 mps 622 mmHg 82%

    20 October, Saturday

    Time Temperature Precipitation Wind Pressure Humidity
    00:00 +19°C° 0.7 mm 1 mps 622 mmHg 84%
    01:00 +19°C° 0.7 mm 1 mps 622 mmHg 85%
    02:00 +19°C° 0 mm 1 mps 622 mmHg 86%
    03:00 +19°C° 0 mm 1 mps 621 mmHg 86%
    04:00 +19°C° 0 mm 1 mps 621 mmHg 87%
    05:00 +19°C° 0 mm 1 mps 622 mmHg 84%
    06:00 +20°C° 0 mm 1 mps 623 mmHg 81%
    07:00 +21°C° 0 mm 1 mps 624 mmHg 78%
    08:00 +24°C° 0.3 mm 1 mps 624 mmHg 67%
    09:00 +26°C° 0.3 mm 1 mps 625 mmHg 56%
    10:00 +29°C° 0.3 mm 1 mps 626 mmHg 45%
    11:00 +30°C° 0 mm 2 mps 625 mmHg 39%
    12:00 +31°C° 0 mm 2 mps 625 mmHg 34%
    13:00 +33°C° 0 mm 3 mps 624 mmHg 28%
    14:00 +31°C° 0 mm 3 mps 624 mmHg 30%
    15:00 +31°C° 0 mm 2 mps 623 mmHg 31%
    16:00 +30°C° 0 mm 2 mps 623 mmHg 32%
    17:00 +28°C° 0.4 mm 2 mps 623 mmHg 41%
    18:00 +25°C° 0.4 mm 3 mps 623 mmHg 51%
    19:00 +22°C° 0.4 mm 3 mps 622 mmHg 60%
    20:00 +21°C° 1.6 mm 3 mps 622 mmHg 66%
    21:00 +20°C° 1.6 mm 3 mps 622 mmHg 72%
    22:00 +20°C° 1.6 mm 3 mps 622 mmHg 78%
    23:00 +19°C° 0.1 mm 2 mps 622 mmHg 78%

    21 October, Sunday

    Time Temperature Precipitation Wind Pressure Humidity
    00:00 +19°C° 0.1 mm 2 mps 622 mmHg 77%
    01:00 +20°C° 0.1 mm 1 mps 621 mmHg 76%
    02:00 +20°C° 0 mm 1 mps 621 mmHg 78%
    03:00 +19°C° 0 mm 1 mps 621 mmHg 80%
    04:00 +19°C° 0 mm 1 mps 621 mmHg 82%
    05:00 +20°C° 0 mm 1 mps 622 mmHg 78%
    06:00 +21°C° 0 mm 1 mps 622 mmHg 75%
    07:00 +21°C° 0 mm 1 mps 623 mmHg 72%
    08:00 +25°C° 0 mm 1 mps 624 mmHg 60%
    09:00 +29°C° 0 mm 1 mps 625 mmHg 48%
    10:00 +32°C° 0 mm 1 mps 626 mmHg 36%
    11:00 +33°C° 0 mm 1 mps 625 mmHg 33%
    12:00 +34°C° 0 mm 2 mps 624 mmHg 30%
    13:00 +34°C° 0 mm 2 mps 623 mmHg 27%
    14:00 +32°C° 0 mm 2 mps 623 mmHg 30%
    15:00 +31°C° 0 mm 2 mps 622 mmHg 33%
    16:00 +30°C° 0 mm 2 mps 622 mmHg 35%
    17:00 +28°C° 0.2 mm 2 mps 622 mmHg 41%
    18:00 +26°C° 0.2 mm 1 mps 622 mmHg 48%
    19:00 +24°C° 0.2 mm 1 mps 621 mmHg 54%
    20:00 +23°C° 1.9 mm 2 mps 622 mmHg 62%
    21:00 +21°C° 1.9 mm 2 mps 622 mmHg 71%
    22:00 +20°C° 1.9 mm 2 mps 622 mmHg 79%
    23:00 +20°C° 0.4 mm 2 mps 622 mmHg 79%
    Show more